Powrót do katalogu

OKEAN 1

AktywnyNaukaPO
NORAD 19274·PAYLOAD·🇷🇺 Russia

Wystrzelony Jul 5, 1988 z Plesetsk Cosmodrome

Loading…

Następne Przeloty (najbliższe 24 godziny)

TLE

ŚwieżeSource: Space-Track

Epoka: Sep 14, 2026, 11:32 UTC

1 19274U 88056A   26257.48094716  .00007453  00000-0  21944-3 0  9993
2 19274  82.4662  70.6520 0011006 217.0830 142.9654 15.34815201 64014

Śledź OKEAN 1 w czasie rzeczywistym z AllMySat

Download on the App Store